[[{"header":{"parameterUnit":"m.s-1","parameterCategory":1,"la1":30.2991,"la2":30.254,"lo1":-89.0895,"lo2":-89.0444,"dy":0.0017,"dx":0.0017,"nx":28,"ny":28,"refTime":"2025-09-04T03:00:00:Z","depth":0,"parameterNumber":2,"parameterNumberName":"U-component_of_WINDS"},"data":[0,0,0,0,0,0,0,0,0,0,0,0,0,0,0,0,0,0,0,0,0,0,0,0,0,0,0,0,0,0,0,0,0,0,0,0,0,0,0,0,0,0,0,0,0,0,0,0,0,0,0,0,0,0,0,0,0,0,0.9154,0.9154,0,0.9155,0.9155,0.9155,0.9154,0.9154,0.9154,0.9154,0.9154,0.9154,0.9154,0,0,0,0,0,0,0,0,0,0,0,0,0,0.9146,0.9146,0.9154,0.9154,0.9154,0.9155,0.9155,0.9155,0.9154,0.9154,0.9154,0.9154,0.9154,0.9154,0.9154,0,0,0,0,0,0,0,0,0,0,0,0,0,0.9149,0.9146,0.9154,0.9153,0.9153,0.9155,0.9155,0.9155,0.9154,0.9154,0.9154,0.9154,0.9154,0.9154,0.9154,0.9156,0,0,0.9155,0.9155,0,0,0,0,0,0,0,0,0.9149,0.9149,0.9153,0.9153,0.9153,0.9155,0.9153,0.9156,0.9154,0.9154,0.9154,0.9154,0.9154,0.9154,0.9155,0.9156,0.9156,0.9155,0.9155,0.9155,0.9155,0,0,0,0,0,0,0,0.9148,0.9149,0.9154,0.9153,0.9154,0.9152,0.9152,0.9153,0.9154,0.9154,0.9154,0.9154,0.9154,0.9155,0.9155,0.9156,0.9155,0.9155,0.9155,0.9155,0.9156,0.9156,0,0,0,0,0,0,0.9149,0.9149,0.9154,0.9154,0.9151,0.9152,0.9153,0.9154,0.9154,0.9154,0.9154,0.9154,0.9155,0.9155,0.9155,0.9155,0.9155,0.9155,0.9155,0.9156,0.9156,0.9156,0,0,0,0,0,0,0.9149,0.9149,0.9154,0.9152,0.9152,0.9153,0.9154,0.9154,0.9155,0.9155,0.9155,0.9155,0.9155,0.9155,0.9155,0.9155,0.9155,0.9155,0.9156,0.9156,0.9156,0.9157,0,0,0,0,0,0,0.9148,0.9149,0.9151,0.9152,0.9152,0.9156,0.9154,0.9154,0.9155,0.9155,0.9155,0.9155,0.9155,0.9155,0.9155,0.9155,0.9155,0.9156,0.9156,0.9156,0.9157,0.9157,0.9157,0,0,0,0,0,0.9148,0.9151,0.9151,0.9152,0.9154,0.9156,0.9156,0.9156,0.9155,0.9156,0.9155,0.9155,0.9155,0.9155,0.9155,0.9155,0.9156,0.9156,0.9156,0.9157,0.9157,0.9157,0,0,0,0,0,0,0.915,0.9151,0.9151,0.9155,0.9155,0.9156,0.9157,0.9156,0.9157,0.9157,0.9156,0.9156,0.9156,0.9156,0.9156,0.9156,0.9155,0.9155,0.9156,0.9156,0.9156,0.9156,0.9155,0,0,0,0,0,0.9151,0.9153,0.9154,0.9157,0.9157,0.9157,0.9157,0.9157,0.9157,0.9157,0.9157,0.9157,0.9156,0.9156,0.9156,0.9157,0.9156,0.9157,0.9157,0.9157,0.9157,0.9155,0.9155,0.9156,0.9156,0.9156,0,0,0.9153,0.9154,0.9155,0.9157,0.9157,0.9158,0.9157,0.9158,0.9158,0.9157,0.9158,0.9157,0.9156,0.9157,0.9157,0.9156,0.9156,0.9157,0.9157,0.9157,0.9155,0.9155,0.9155,0.9156,0.9156,0.9156,0,0,0.9157,0.9159,0.916,0.916,0.9161,0.916,0.916,0.916,0.916,0.916,0.9159,0.9158,0.9159,0.9157,0.9157,0.9158,0.9156,0.9157,0.9158,0.9156,0.9156,0.9156,0.9155,0.9154,0.9157,0.9157,0.9157,0,0.9159,0.9161,0.9161,0.9162,0.9162,0.9161,0.9162,0.9161,0.9161,0.9161,0.9161,0.9159,0.9159,0.9158,0.9157,0.9158,0.9157,0.9158,0.9156,0.9156,0.9156,0.9155,0.9154,0.9157,0.9157,0.9157,0.9157,0,0.9163,0.9164,0.9165,0.9165,0.9165,0.9166,0.9165,0.9164,0.9163,0.9163,0.9161,0.9161,0.9159,0.9159,0.9159,0.9157,0.9157,0.9156,0.9156,0.9156,0.9154,0.9154,0.9158,0.9158,0.9158,0.9157,0,0,0.917,0.9168,0.9168,0.9167,0.9166,0.9167,0.9166,0.9165,0.9164,0.9164,0.9162,0.9161,0.916,0.916,0.9158,0.9157,0.9155,0.9156,0.9156,0.9155,0.9152,0.9152,0.9151,0.9155,0.9155,0.9155,0.9151,0,0.9172,0.9173,0.9171,0.9172,0.9171,0.9169,0.9168,0.9167,0.9166,0.9164,0.9162,0.9161,0.9161,0.916,0.9158,0.9156,0.9155,0.9156,0.9152,0.9152,0.9152,0.9151,0.9151,0.9149,0.9151,0.9151,0.9151,0,0.9176,0.9175,0.9175,0.9172,0.9172,0.9172,0.9169,0.9169,0.9166,0.9165,0.9163,0.9161,0.9159,0.9159,0.9155,0.9156,0.9154,0.9152,0.9152,0.9152,0.9151,0.9149,0.9148,0.9147,0.9151,0.9151,0.9151,0,0.9179,0.9178,0.9177,0.9176,0.9174,0.9173,0.9171,0.9169,0.9168,0.9165,0.9164,0.9161,0.9159,0.9157,0.9154,0.9154,0.915,0.9149,0.9147,0.9147,0.9147,0.9147,0.9144,0.9146,0.9146,0.9146,0.9146,0,0.9182,0.9182,0.9178,0.9178,0.9176,0.9174,0.9173,0.9171,0.9168,0.9166,0.9164,0.9162,0.9159,0.9156,0.9153,0.915,0.9149,0.9147,0.9146,0.9147,0.9147,0.9145,0.9145,0.9146,0.9146,0.9146,0.9146,0,0.9185,0.9183,0.9182,0.9179,0.9178,0.9177,0.9173,0.9172,0.917,0.9167,0.9166,0.9162,0.9159,0.9155,0.9151,0.9149,0.9144,0.9144,0.9145,0.9145,0.9143,0.9142,0.9138,0.9137,0.9141,0.9141,0.9141,0,0.9187,0.9187,0.9183,0.9181,0.918,0.9178,0.9176,0.9173,0.9171,0.9167,0.9165,0.9162,0.9158,0.9152,0.9148,0.9144,0.9143,0.9142,0.9142,0.9142,0.9141,0.9141,0.914,0.9142,0.9142,0.9141,0.9141,0,0.919,0.9188,0.9186,0.9183,0.9181,0.9178,0.9175,0.9174,0.917,0.9168,0.9164,0.9161,0.9156,0.9151,0.9146,0.9143,0.9141,0.9141,0.914,0.9141,0.9141,0.914,0.9144,0.9141,0.9141,0.9141,0.9141,0.9141,0.9192,0.919,0.9187,0.9184,0.9181,0.9178,0.9176,0.9173,0.917,0.9165,0.9163,0.9159,0.9154,0.9147,0.9144,0.914,0.9139,0.9139,0.9138,0.9138,0.9137,0.9142,0.9139,0.9139,0.9139,0.9139,0.9139,0,0.9193,0.919,0.9188,0.9183,0.918,0.9179,0.9175,0.9172,0.9169,0.9165,0.9161,0.9155,0.915,0.9146,0.914,0.9137,0.9136,0.9136,0.9136,0.9135,0.9138,0.9139,0.9137,0.9137,0.9137,0.9137,0.9137,0.9137,0.9194,0.9191,0.9188,0.9183,0.918,0.9176,0.9174,0.917,0.9167,0.9161,0.9156,0.9153,0.9148,0.9142,0.9137,0.9136,0.9133,0.9133,0.9131,0.9135,0.9135,0.9135,0.9136,0.9133,0.9133,0.9128,0.9128,0.9128]},{"header":{"parameterUnit":"m.s-1","parameterCategory":1,"la1":30.2991,"la2":30.254,"lo1":-89.0895,"lo2":-89.0444,"dy":0.0017,"dx":0.0017,"nx":28,"ny":28,"refTime":"2025-09-04T03:00:00:Z","depth":0,"parameterNumber":3,"parameterNumberName":"V-component_of_WINDS"},"data":[0,0,0,0,0,0,0,0,0,0,0,0,0,0,0,0,0,0,0,0,0,0,0,0,0,0,0,0,0,0,0,0,0,0,0,0,0,0,0,0,0,0,0,0,0,0,0,0,0,0,0,0,0,0,0,0,0,0,2.7397,2.7397,0,2.7402,2.7402,2.7402,2.7359,2.7358,2.7357,2.7356,2.736,2.7361,2.7362,0,0,0,0,0,0,0,0,0,0,0,0,0,2.7348,2.7349,2.7397,2.7397,2.7397,2.7402,2.7402,2.7402,2.7359,2.7358,2.7356,2.7355,2.7359,2.7361,2.7362,0,0,0,0,0,0,0,0,0,0,0,0,0,2.7363,2.7349,2.7397,2.7376,2.7375,2.7402,2.7402,2.7402,2.736,2.7358,2.7356,2.7354,2.7359,2.7361,2.7362,2.741,0,0,2.7368,2.7369,0,0,0,0,0,0,0,0,2.7362,2.7365,2.7379,2.7378,2.7376,2.7378,2.7386,2.7405,2.736,2.7365,2.7356,2.7353,2.7367,2.7368,2.7373,2.741,2.741,2.7368,2.7369,2.737,2.7371,0,0,0,0,0,0,0,2.7361,2.7364,2.7399,2.738,2.7378,2.7366,2.7366,2.739,2.7376,2.7365,2.7362,2.7363,2.7366,2.7371,2.7373,2.741,2.7368,2.737,2.7371,2.7372,2.7483,2.7485,0,0,0,0,0,0,2.7363,2.7364,2.7399,2.7399,2.7364,2.7368,2.7369,2.7379,2.7376,2.7374,2.7364,2.7361,2.7369,2.7371,2.7373,2.7426,2.737,2.7372,2.7373,2.7481,2.7483,2.7485,0,0,0,0,0,0,2.7362,2.7367,2.7399,2.7381,2.7384,2.7371,2.7384,2.738,2.7386,2.7376,2.7373,2.7373,2.7368,2.737,2.74,2.7425,2.7373,2.7374,2.7479,2.7482,2.7484,2.7533,0,0,0,0,0,0,2.7361,2.7367,2.7385,2.7381,2.7385,2.7427,2.7385,2.7382,2.7389,2.7385,2.7383,2.7381,2.7367,2.7398,2.7402,2.7427,2.7376,2.7477,2.748,2.7483,2.7529,2.7537,2.7544,0,0,0,0,0,2.7359,2.7399,2.7386,2.7391,2.7408,2.7429,2.743,2.7414,2.7391,2.7409,2.7402,2.7381,2.7422,2.7401,2.7406,2.7431,2.7475,2.7479,2.7483,2.7526,2.7536,2.7544,0,0,0,0,0,0,2.7406,2.7398,2.7384,2.7424,2.7427,2.7421,2.7443,2.7425,2.7435,2.743,2.7409,2.7409,2.7442,2.744,2.7416,2.7475,2.7444,2.745,2.7475,2.7484,2.7492,2.7491,2.7377,0,0,0,0,0,2.7422,2.7439,2.7431,2.7467,2.7469,2.7456,2.7465,2.7451,2.7454,2.7455,2.745,2.7453,2.7466,2.7476,2.7488,2.7529,2.7527,2.7549,2.7556,2.7563,2.7567,2.7586,2.7595,2.7499,2.7499,2.7499,0,0,2.7453,2.745,2.7463,2.7476,2.7477,2.7495,2.7458,2.7479,2.7491,2.7458,2.7485,2.7482,2.7484,2.7519,2.7534,2.7518,2.7593,2.7568,2.7573,2.7574,2.7591,2.76,2.7608,2.7502,2.7501,2.7501,0,0,2.7518,2.7519,2.7548,2.7549,2.7551,2.7541,2.7548,2.7545,2.7541,2.7568,2.7543,2.7558,2.7582,2.7583,2.7587,2.7651,2.763,2.7656,2.7694,2.7713,2.772,2.7726,2.7747,2.7755,2.766,2.766,2.766,0,2.7556,2.7582,2.7565,2.7587,2.7592,2.7563,2.759,2.7593,2.7599,2.7603,2.7585,2.7613,2.7612,2.7646,2.7661,2.7667,2.7672,2.7655,2.7721,2.7727,2.7733,2.7752,2.776,2.7663,2.7663,2.7663,2.7662,0,2.7628,2.7646,2.7669,2.7674,2.7683,2.7708,2.7693,2.7703,2.7689,2.7681,2.7708,2.7706,2.7716,2.7723,2.771,2.7755,2.7744,2.7724,2.7692,2.7745,2.7762,2.777,2.7667,2.7666,2.7665,2.7665,0,0,2.7723,2.7717,2.7725,2.7726,2.7725,2.7738,2.7761,2.7771,2.7779,2.7784,2.7801,2.7822,2.7802,2.7806,2.7793,2.781,2.7858,2.7787,2.7787,2.7798,2.7903,2.7917,2.7926,2.7845,2.7846,2.7847,2.7902,0,2.7784,2.7822,2.7806,2.7846,2.7861,2.7833,2.7852,2.7853,2.7846,2.7858,2.785,2.7864,2.7839,2.7841,2.7856,2.7849,2.7878,2.7845,2.7859,2.7859,2.7857,2.7935,2.795,2.8002,2.7909,2.791,2.7911,0,2.7861,2.7867,2.7908,2.7902,2.7908,2.7926,2.7931,2.7944,2.7943,2.7937,2.7941,2.7924,2.7944,2.7914,2.7941,2.7919,2.7924,2.7921,2.7922,2.7921,2.7887,2.7933,2.8018,2.8025,2.7922,2.7921,2.7921,0,2.7922,2.7942,2.7968,2.797,2.7964,2.7977,2.7975,2.7973,2.7979,2.7985,2.7988,2.7996,2.8,2.8006,2.799,2.797,2.8019,2.7988,2.8012,2.8012,2.8022,2.8021,2.8106,2.803,2.8029,2.8029,2.8029,0,2.7991,2.8016,2.7995,2.801,2.8037,2.8018,2.8045,2.8041,2.8039,2.8052,2.803,2.8043,2.8023,2.8033,2.8022,2.8044,2.8047,2.8041,2.8037,2.8042,2.8042,2.8043,2.8038,2.8031,2.8031,2.803,2.803,0,2.8063,2.805,2.8076,2.8068,2.8067,2.8087,2.808,2.8093,2.8085,2.8102,2.8105,2.8091,2.8103,2.8088,2.8099,2.8091,2.8121,2.8113,2.812,2.8117,2.8141,2.8138,2.8228,2.8238,2.8157,2.8158,2.8159,0,2.8107,2.8125,2.8119,2.8126,2.8125,2.8138,2.8143,2.8125,2.8131,2.8132,2.8145,2.8154,2.8161,2.818,2.817,2.8178,2.8168,2.8199,2.8169,2.8172,2.8165,2.8163,2.8164,2.8204,2.8205,2.8206,2.8207,0,2.8184,2.8176,2.8185,2.8191,2.8198,2.8202,2.8205,2.8212,2.8193,2.8201,2.8212,2.8217,2.8227,2.8235,2.824,2.8237,2.8218,2.8217,2.8222,2.8226,2.8228,2.8225,2.8134,2.8214,2.8213,2.8213,2.8213,2.8212,2.8242,2.8256,2.8253,2.8262,2.8262,2.8264,2.8276,2.8268,2.8277,2.8283,2.8272,2.8285,2.8283,2.8287,2.8287,2.8296,2.8283,2.8291,2.8293,2.8295,2.8297,2.8229,2.8297,2.8297,2.8297,2.8297,2.8296,0,2.8315,2.8312,2.8321,2.8324,2.8332,2.8314,2.8315,2.8322,2.8334,2.8333,2.8339,2.8351,2.8359,2.835,2.8356,2.8366,2.8357,2.8368,2.8365,2.8365,2.8311,2.8304,2.8374,2.8374,2.8374,2.8374,2.8374,2.8374,2.8355,2.8376,2.8368,2.8389,2.8385,2.8397,2.8399,2.8401,2.84,2.8413,2.842,2.8414,2.8409,2.8415,2.8421,2.8418,2.842,2.8434,2.8427,2.8377,2.8369,2.8361,2.8355,2.8435,2.8435,2.848,2.8481,2.8481]}]]